Regional Weather Roundup
Issued by NWS Nashville, TN

Home | Current Version | Previous Version | Text Only | Print | Product List | Glossary On
Versions: 1 2 3 4 5 6 7 8 9 10 11 12 13 14 15 16 17 18 19 20 21 22 23 24 25 26 27 28
000
ASUS44 KOHX 271910
RWROHX
MIDDLE TENNESSEE HOURLY WEATHER ROUNDUP
NATIONAL WEATHER SERVICE NASHVILLE TN
200 PM CDT THU APR 27 2017

NOTE: "FAIR" INDICATES FEW OR NO CLOUDS BELOW 12,000 FEET WITH
NO SIGNIFICANT WEATHER AND/OR OBSTRUCTIONS TO VISIBILITY.

* THESE REPORTS ARE NOT UNDER NWS QUALITY CONTROL AND MAY NOT
  REPORT WEATHER SUCH AS PRECIPITATION AND FOG.


TNZ005>011-023>034-057-059-062>066-078-080-272000
...NORTHERN MIDDLE TENNESSEE...

CITY           SKY/WX    TMP DP  RH WIND       PRES   REMARKS
CLARKSVILLE    CLOUDY    59  48  67 W12       29.83R
CROSSVILLE     MOSUNNY   72  53  51 W14G25    29.80R
GALLATIN       MOSUNNY   70  54  56 SW9G20    29.82S
DICKSON        MOSUNNY   58  49  72 W10       29.82S
LEBANON        MOSUNNY   69  55  60 W12       29.78R
NASHVILLE      PTSUNNY   70  54  56 W14       29.80S
PORTLAND       PTSUNNY   64  54  68 W10G18    29.79S
SMYRNA         PTSUNNY   70  56  61 SW15      29.80S
SPARTA         PTSUNNY   73  57  56 W8G17     29.76S
SPRINGFIELD    CLOUDY    61  54  77 W12       29.81S
WEST NASHVILLE MOSUNNY   64  52  63 W15       29.80S
$$
TNZ056-058-060-061-075>077-079-093>097-272000
...SOUTHERN MIDDLE TENNESSEE...

CITY           SKY/WX    TMP DP  RH WIND       PRES   REMARKS
COLUMBIA         N/A     66  61  82 VRB7      29.80S
FAYETTEVILLE   MOSUNNY   72  59  64 W13G18    29.80S
MCMINNVILLE    MOSUNNY   75  59  57 W13       29.78S
MURFREESBORO   MOSUNNY   70  54  56 W9        29.79R
SHELBYVILLE    PTSUNNY   73  61  64 W10       29.81S
TULLAHOMA      MOSUNNY   73  55  53 W12       29.80S
WINCHESTER     MOSUNNY   73  57  56 W6        29.79S
$$


...KEY TO REMARKS...
VSB - VISIBILITY IN MILES
WCI - WIND CHILL INDEX
HX  - HEAT INDEX





USA.gov is the U.S. government's official web portal to all federal, state and local government web resources and services.